Theta_e
292 283 281 280 281 284 286 286 285 287 286 285 284 283 282 282 283 286 287 290 291 287 285 287 287 287 288 290 289 289 290 289 289 289 289 289 290 290 290 291 291 292 293 295 296 296 297 298 299 300 300 301 301 301 301 302 303 304 304 306 306 308 310 309 313 327 326 326 327 327 327 326 327 327 327 326 325 324 324 324 325 324 325 325 325 326
290 281 281 284 285 286 286 286 287 287 287 284 282 281 281 282 280 285 286 289 291 286 284 287 287 289 288 287 288 289 289 287 287 288 288 288 289 290 289 290 290 291 293 294 294 295 296 297 298 298 299 300 299 300 301 301 301 302 303 304 305 308 309 310 310 310 323 328 327 326 326 327 327 326 326 326 326 325 326 325 325 325 325 325 325 325
282 279 283 286 287 288 287 286 286 285 285 285 281 281 280 281 284 286 287 289 290 288 284 286 286 286 285 287 288 288 288 288 289 288 288 288 288 289 290 290 290 291 292 293 293 294 295 296 297 298 298 299 299 299 300 301 301 301 301 302 304 306 307 309 310 310 309 313 326 328 326 326 326 328 328 328 328 327 326 326 326 326 326 326 326 326
278 281 285 288 287 286 285 285 284 284 285 281 280 279 277 281 280 278 285 288 288 287 285 286 286 285 287 288 288 288 288 288 289 289 289 289 288 289 289 290 290 290 291 291 292 293 294 295 296 296 297 298 298 299 299 300 300 301 301 302 303 304 305 308 309 310 310 311 311 324 329 328 327 325 326 327 328 328 328 327 327 327 327 327 326 326
280 283 288 287 286 285 283 284 283 281 280 284 282 281 280 281 283 282 282 287 288 288 289 289 285 282 285 284 285 287 288 287 287 287 287 288 289 290 290 290 291 290 291 291 292 293 294 294 295 295 296 298 298 298 298 299 299 300 300 301 302 302 304 305 307 307 308 310 310 311 324 327 326 326 326 326 325 327 326 326 326 327 327 328 328 327
282 286 288 285 284 285 284 281 282 282 278 281 283 282 282 284 283 284 286 284 282 281 286 285 279 278 282 284 283 284 285 285 286 285 285 286 288 288 288 289 290 291 291 291 292 292 293 294 295 295 296 296 297 297 298 299 299 300 300 301 302 302 303 304 305 306 307 307 309 309 308 315 323 323 324 323 323 324 325 325 327 327 328 328 328 328
283 287 286 283 283 283 283 281 283 283 279 278 279 284 284 284 285 285 284 283 277 275 283 286 276 275 282 281 281 283 283 283 284 284 284 286 287 287 288 289 289 289 290 291 292 292 293 294 294 295 295 295 295 296 298 298 299 299 300 300 301 301 302 304 303 304 305 305 306 308 309 309 309 317 323 326 327 326 327 328 327 327 327 328 328 328
285 284 284 284 282 281 280 278 282 283 279 276 283 284 284 284 284 284 284 283 280 284 286 283 281 276 276 281 284 284 282 281 282 282 283 285 286 287 288 289 289 290 290 290 291 292 293 293 294 294 294 295 295 296 297 297 298 298 299 300 300 301 301 302 303 303 304 303 304 306 308 309 309 310 316 323 326 328 328 327 327 327 327 328 328 328
283 282 283 282 281 279 277 281 283 285 280 281 285 285 283 284 285 285 284 282 283 279 273 277 281 275 275 279 285 283 279 279 280 281 283 284 285 286 287 288 289 290 290 291 291 291 292 292 293 294 294 294 295 295 295 295 296 297 298 298 299 299 300 300 301 302 302 303 303 304 307 307 309 310 311 315 322 323 324 326 327 328 328 328 328 328
285 284 285 285 281 277 281 282 283 285 280 283 286 287 287 287 287 286 281 282 280 275 270 275 279 271 274 278 279 282 279 277 278 281 282 284 285 286 287 288 289 289 290 291 291 291 292 292 292 293 294 294 294 294 295 295 295 295 296 296 296 297 298 299 299 300 301 302 303 303 304 304 305 308 310 310 311 319 324 324 324 326 326 326 328 328
286 290 290 286 281 282 282 283 286 285 286 287 286 284 284 285 284 283 282 280 277 270 272 277 279 277 270 277 278 277 278 278 279 279 281 283 285 286 287 288 288 289 290 290 290 291 291 292 292 292 292 292 293 293 293 293 293 294 294 294 294 295 296 297 298 298 299 300 301 302 302 302 303 305 307 308 308 310 316 322 323 324 326 327 328 328
286 286 284 286 288 285 284 282 286 287 287 285 282 280 279 279 280 279 276 275 269 267 274 277 277 280 269 273 277 281 281 280 279 278 280 282 283 285 286 287 288 289 289 290 290 290 291 291 291 291 291 291 291 291 292 292 292 293 293 293 292 293 293 294 295 296 297 298 300 300 300 301 302 303 305 306 307 308 309 313 320 324 325 326 327 327
280 280 284 287 289 285 281 279 279 283 284 282 280 279 272 268 270 266 269 265 268 267 272 276 279 274 276 278 280 280 280 281 281 281 281 282 283 284 286 287 288 288 289 289 289 289 290 289 289 289 290 290 290 290 291 291 291 292 292 292 292 291 292 292 293 294 295 296 297 298 299 299 301 302 303 304 306 308 308 309 312 319 322 324 324 325
277 282 282 283 286 286 283 275 274 275 278 279 277 275 269 265 263 261 264 267 267 272 276 276 278 273 278 280 283 282 282 282 282 282 283 283 283 284 285 286 287 288 288 288 289 288 289 289 289 289 289 290 290 290 290 291 291 291 291 291 291 291 291 291 292 293 293 294 295 297 298 299 299 300 301 302 303 306 309 310 309 310 316 322 323 324
269 269 277 280 276 285 283 279 278 276 278 278 282 278 272 268 265 261 264 260 262 268 274 277 271 269 271 276 284 284 284 283 283 283 283 284 284 285 285 286 286 287 287 288 288 288 288 289 289 289 289 289 289 289 290 290 290 290 290 291 290 290 291 291 291 291 292 292 294 295 296 297 297 299 300 301 303 305 307 309 310 310 312 315 321 324
273 272 279 284 284 284 280 283 283 281 276 279 281 281 272 271 273 265 267 266 265 268 268 271 271 275 276 284 285 284 283 282 283 282 283 282 284 284 285 285 286 286 287 288 288 288 288 288 289 289 289 289 288 288 289 289 289 289 290 290 290 290 290 291 291 290 291 291 292 293 294 294 296 297 298 299 301 302 304 307 309 310 311 312 315 321
272 270 281 282 286 281 281 283 283 284 269 277 277 270 273 282 276 271 270 272 269 268 266 272 273 277 282 283 283 283 282 281 282 282 282 283 283 283 284 285 285 286 286 286 287 288 288 288 288 288 288 288 288 288 288 288 288 289 289 289 289 289 290 290 291 290 291 291 291 291 292 293 293 295 296 298 299 301 303 306 308 310 311 312 313 316
268 271 279 279 278 283 284 283 285 286 282 278 272 275 281 281 278 270 263 266 265 263 264 272 269 271 272 268 282 282 280 280 281 280 282 282 282 282 283 284 285 285 285 286 287 288 288 288 288 287 287 287 287 287 287 288 288 288 289 288 288 288 289 290 290 290 290 290 290 290 291 291 292 294 296 298 299 300 301 303 305 307 309 311 313 314
277 269 275 280 280 282 284 283 280 284 286 279 278 284 274 266 267 270 268 260 259 259 263 269 271 271 272 273 279 278 278 278 279 281 281 281 281 282 283 284 284 284 285 285 286 287 288 288 287 286 286 287 287 287 288 288 288 288 288 288 288 288 289 289 290 289 290 290 290 291 290 291 291 293 295 296 298 299 298 299 302 305 307 310 312 312
276 268 272 280 279 279 280 277 271 275 283 278 283 279 281 273 270 265 268 266 267 262 262 261 267 266 276 275 277 277 278 279 280 280 280 281 281 282 283 284 284 284 284 284 285 286 287 288 287 286 285 286 286 286 287 287 287 287 287 287 287 288 288 289 289 289 289 289 290 290 290 291 292 293 293 294 295 296 297 298 299 301 303 306 309 312
273 274 266 274 279 278 271 275 274 275 273 276 275 274 273 272 274 273 271 267 265 262 262 262 262 268 277 279 279 279 279 280 280 280 281 281 281 282 283 283 284 284 284 284 284 285 286 287 287 285 284 286 286 286 286 287 287 287 287 287 287 286 287 288 288 289 289 289 289 289 289 290 291 292 292 292 293 295 296 297 297 299 301 304 305 309
272 273 269 272 272 271 273 280 279 279 278 275 276 274 273 270 267 264 263 274 268 266 262 262 263 270 277 282 281 280 280 280 281 281 281 281 282 282 283 283 283 283 284 284 284 284 285 286 286 285 284 285 284 285 285 286 286 286 286 286 286 287 287 287 288 288 289 289 289 288 288 289 291 292 292 291 292 293 295 295 296 298 299 302 304 305
276 273 270 268 270 273 277 280 283 281 277 277 278 274 275 273 271 267 261 264 269 269 269 268 265 267 278 281 281 281 281 281 282 281 281 281 282 283 283 283 283 283 284 284 284 284 284 285 285 285 284 283 284 284 285 285 286 286 286 286 286 286 286 287 287 288 288 288 288 288 288 288 289 291 291 291 292 292 293 294 295 297 298 300 302 304
282 271 268 271 274 277 278 276 276 278 279 272 273 276 275 270 270 269 268 268 265 266 264 264 263 268 278 281 281 281 282 282 282 281 281 281 282 283 283 283 283 283 284 284 284 284 284 284 284 285 284 284 284 283 284 285 285 285 285 286 286 285 286 286 287 287 287 287 287 288 288 288 288 289 289 290 291 292 292 293 294 295 296 297 300 302
271 273 270 267 266 269 269 271 274 274 274 274 273 275 276 275 272 271 270 269 265 268 267 263 261 265 278 281 282 282 281 281 280 281 282 281 282 283 283 283 283 283 283 283 283 283 283 283 283 284 284 284 283 283 283 284 284 285 285 285 285 285 286 286 286 286 287 286 286 287 287 287 288 288 288 289 290 291 292 292 293 294 294 296 297 299
274 274 271 264 261 260 261 263 265 266 270 274 275 274 275 273 270 269 265 266 264 267 269 264 266 273 277 279 279 280 280 279 280 281 282 282 282 283 283 283 283 283 283 282 282 282 283 283 283 283 283 284 283 282 283 284 284 284 284 284 285 285 285 285 286 286 286 286 286 286 286 286 287 287 287 288 289 291 292 292 292 292 293 294 295 296
274 274 273 270 266 266 268 268 271 276 272 268 271 272 273 275 275 272 271 268 266 269 267 269 270 271 273 276 277 278 278 278 279 280 281 282 283 283 283 283 283 283 283 282 282 283 283 283 283 283 283 284 283 283 283 284 284 284 284 284 284 285 285 285 285 285 285 285 285 285 285 285 286 287 287 288 289 290 291 291 291 292 292 293 293 294
274 271 272 271 271 272 273 272 274 275 270 271 271 271 273 274 274 272 267 266 272 268 265 271 273 271 272 275 276 277 278 279 280 281 282 282 282 282 282 282 284 282 282 282 282 282 282 282 283 283 283 283 283 283 283 283 284 284 283 283 284 284 284 285 284 284 284 284 284 284 285 286 286 286 287 288 289 289 290 290 291 291 292 292 292 293
270 267 269 270 270 273 274 273 274 273 273 272 272 272 271 273 272 269 270 273 272 268 266 271 273 271 273 275 277 278 279 279 280 280 281 282 282 281 281 281 280 281 281 281 282 282 282 282 282 282 282 283 282 282 282 283 283 283 283 283 284 284 284 284 284 283 284 284 284 284 285 286 286 287 287 288 288 288 289 289 290 291 291 291 292 294
273 269 271 274 272 273 273 274 274 272 272 272 272 272 273 272 272 272 272 273 272 271 272 273 273 272 275 276 278 279 280 280 280 281 281 281 280 281 280 280 280 281 281 281 282 282 282 282 281 281 281 281 281 281 282 282 283 283 283 283 283 283 284 284 283 283 283 283 283 284 284 285 285 286 287 287 287 287 288 288 289 290 290 291 292 293
273 270 275 271 269 269 271 272 272 272 271 269 272 272 272 272 272 272 272 273 273 272 273 273 272 272 277 279 279 280 281 281 280 279 280 280 280 280 280 280 280 280 281 281 282 282 281 281 281 281 281 281 281 281 282 282 283 283 283 283 283 283 284 284 283 283 283 283 284 284 284 284 285 285 286 286 287 287 287 288 288 289 290 291 291 292
276 272 275 272 268 268 271 269 269 269 269 268 268 269 270 269 265 269 270 273 271 271 272 272 271 271 276 278 279 280 279 279 279 279 279 279 280 280 279 279 280 280 280 281 281 280 280 280 280 280 281 281 281 281 282 282 282 282 282 283 283 283 284 283 283 283 283 283 283 284 284 284 284 284 285 286 286 286 287 287 288 288 289 290 290 291
275 272 270 270 267 267 270 269 267 267 267 265 266 269 271 273 273 274 275 276 275 274 271 268 270 275 277 279 277 278 278 278 278 278 278 279 280 279 279 279 280 280 280 279 279 279 279 279 280 281 281 281 281 281 281 282 281 281 282 282 283 283 283 283 283 283 283 283 283 283 284 284 284 284 284 285 285 286 287 287 287 287 288 289 290 290
276 274 271 273 266 267 268 267 268 266 261 263 273 277 276 273 273 271 271 273 275 275 273 275 275 277 277 277 276 276 276 277 278 279 281 280 279 279 279 280 280 280 279 279 279 279 280 280 281 281 281 281 281 281 281 282 282 282 282 283 283 282 282 282 282 282 282 283 283 283 283 283 283 283 284 284 285 285 286 286 287 287 288 289 289 289
274 273 271 272 267 266 269 269 266 261 262 271 277 278 277 276 275 274 274 275 275 276 276 275 276 276 277 277 277 277 278 279 280 280 280 280 280 279 279 279 279 279 279 279 279 280 280 280 280 280 280 280 280 281 281 281 282 282 282 282 282 282 282 282 282 282 282 282 283 283 283 283 283 283 284 284 284 284 285 286 287 288 288 288 288 288
274 273 272 271 271 271 268 267 260 261 268 274 276 278 279 278 276 274 272 275 275 275 275 275 275 276 277 277 278 279 279 279 279 280 280 280 280 280 279 279 279 279 279 279 279 280 279 279 279 279 279 281 280 281 281 281 282 281 281 282 282 282 282 282 281 282 282 282 282 283 283 283 283 283 283 283 283 284 284 285 286 286 287 287 287 288
276 274 273 268 272 264 265 264 265 271 270 272 272 273 274 272 272 271 267 271 275 276 275 274 275 276 277 277 278 278 278 278 276 277 279 280 280 280 280 279 280 279 280 280 280 280 280 280 280 280 280 280 281 281 281 281 281 281 281 281 281 281 281 281 281 281 282 282 282 283 283 283 283 282 282 283 283 283 284 284 285 286 287 286 287 286
278 272 274 269 268 270 265 264 265 264 261 265 274 277 278 278 277 276 273 270 276 276 277 276 275 276 276 277 277 277 277 274 271 273 277 278 279 279 280 280 280 280 280 280 280 280 280 280 280 280 280 280 280 280 281 281 281 280 280 280 281 281 281 281 281 281 281 282 282 282 282 283 283 282 282 282 282 283 284 284 285 285 286 286 286 285
277 277 274 270 268 268 265 263 262 260 264 272 272 276 277 278 277 276 270 267 274 274 277 276 275 276 276 276 275 276 273 269 270 273 277 278 278 279 278 278 279 280 280 280 279 279 279 279 279 280 280 279 279 280 280 280 280 280 280 280 280 280 280 280 281 281 281 282 282 282 282 283 282 282 282 282 282 283 283 284 284 285 286 286 286 285
270 273 273 270 269 269 267 265 263 267 265 271 274 275 276 277 277 274 264 265 275 276 277 277 276 276 276 276 276 274 272 268 270 274 278 279 278 278 278 278 278 279 279 280 279 279 279 280 279 279 279 279 279 280 280 280 280 279 280 280 280 280 280 280 281 282 282 282 282 282 282 282 282 282 282 282 283 283 283 284 284 285 286 286 285 285
267 269 271 267 269 269 270 267 269 270 274 276 275 276 277 278 276 265 261 269 276 277 277 277 276 277 277 275 275 273 274 276 276 278 278 279 278 278 278 279 279 279 279 279 279 281 279 279 279 278 279 279 280 280 280 280 279 279 279 280 279 279 280 281 282 282 282 282 282 282 282 282 282 282 282 283 283 283 284 284 284 285 285 285 285 284
267 266 269 271 268 267 268 266 266 269 275 277 278 277 277 273 263 264 274 277 277 277 277 276 276 277 276 276 275 275 276 277 278 278 278 277 277 277 278 278 278 279 280 279 279 279 279 278 278 278 279 279 279 279 279 279 279 279 279 279 279 279 281 281 281 282 282 282 282 282 282 282 282 283 283 283 283 283 283 284 284 285 285 284 284 283
269 267 267 268 270 271 269 266 265 262 272 277 277 276 275 268 271 277 279 279 278 277 277 276 277 276 275 275 275 276 276 276 277 277 277 277 277 276 277 277 277 277 278 278 278 279 278 278 278 278 278 279 279 279 279 279 278 278 279 278 279 280 281 281 282 282 282 282 282 282 282 282 282 282 283 283 283 283 283 284 284 284 284 284 283 283
277 270 270 271 272 263 266 264 265 270 275 277 277 272 275 278 281 280 279 276 278 277 276 276 275 275 275 275 275 275 276 276 276 277 276 277 277 277 277 277 278 278 278 278 278 278 278 277 278 278 278 279 279 279 278 278 277 278 278 278 280 280 280 280 281 281 281 281 281 281 281 282 283 283 283 283 283 283 283 284 284 284 284 284 284 283
278 273 274 268 275 272 269 272 276 278 278 280 279 279 280 281 280 280 279 278 277 276 275 274 274 275 276 276 275 275 275 276 276 276 276 276 276 276 276 277 278 278 278 277 277 278 278 277 277 277 278 278 278 278 278 278 277 277 277 279 279 279 279 279 279 280 280 279 280 281 282 283 284 284 284 284 284 283 283 283 283 282 283 284 284 283
279 279 278 277 275 279 279 279 280 279 280 280 281 282 280 280 280 280 279 277 276 275 274 275 275 276 276 276 275 275 275 276 276 276 276 276 276 276 277 277 277 278 277 277 277 277 277 277 277 276 276 277 277 277 277 277 277 276 277 278 279 278 277 277 277 277 277 277 278 278 279 279 281 283 284 284 283 282 283 282 283 283 283 284 284 284
277 278 277 274 277 274 270 278 278 278 279 279 279 281 281 281 280 279 277 276 275 275 275 276 276 276 276 276 276 275 275 276 275 275 275 275 275 276 276 276 277 276 276 276 277 277 276 276 276 275 275 275 276 276 277 276 277 277 278 278 278 277 277 276 276 276 276 276 276 276 276 277 278 279 281 281 282 282 283 283 283 282 283 283 284 283
272 277 272 275 275 273 273 277 278 279 279 280 280 279 279 279 279 278 278 276 275 275 275 276 276 276 277 276 276 275 275 276 275 275 275 275 275 275 276 276 276 275 276 276 276 276 276 275 274 274 274 275 276 276 276 276 276 277 277 277 276 277 277 276 276 276 275 275 275 275 275 276 278 279 279 281 282 282 281 282 282 282 282 282 283 283
276 277 272 275 273 275 277 278 278 278 279 279 279 279 279 278 279 279 277 275 274 275 276 276 277 276 276 275 276 276 275 275 275 275 274 275 275 275 275 275 275 275 275 275 276 276 275 275 274 274 274 274 275 275 275 275 275 276 275 276 276 276 275 275 275 275 275 275 275 275 275 276 278 280 280 280 280 280 281 281 281 281 281 283 284 284
277 273 277 275 271 271 272 274 276 271 271 276 277 279 279 279 278 278 276 275 275 275 276 275 275 276 276 276 276 276 275 275 275 275 274 275 275 275 275 275 274 274 275 276 276 276 275 275 274 274 274 274 275 274 274 274 274 275 275 275 275 275 274 274 274 274 274 274 274 275 275 276 277 279 279 279 278 278 279 281 281 280 280 281 283 285
276 276 275 272 272 271 276 278 278 278 277 278 279 280 279 278 278 277 275 275 275 275 275 274 274 274 275 276 277 275 274 274 274 275 274 275 275 276 276 275 275 275 275 275 275 274 274 274 274 274 273 274 274 274 274 273 273 273 274 274 274 274 274 274 273 272 273 274 274 275 274 275 276 277 277 278 278 277 277 277 278 280 282 283 284 285
Wind_Speed
5 12 15 14 12 12 13 13 13 8 7 9 8 7 7 8 7 8 9 9 9 7 5 7 5 4 4 4 15 16 19 19 17 16 14 14 13 13 13 13 13 13 12 10 10 12 13 14 14 13 12 13 13 15 17 16 17 15 15 16 16 14 14 11 12 7 2 4 6 6 7 7 7 7 6 6 6 7 6 6 6 7 8 8 7 8
6 14 14 14 13 12 11 13 14 13 6 7 8 7 7 8 9 10 7 11 9 5 6 4 7 9 13 17 17 19 19 17 15 15 16 14 13 11 12 12 11 9 8 11 13 15 14 14 15 14 13 14 17 16 16 16 16 14 17 16 15 15 15 13 12 12 9 5 5 8 8 7 7 6 7 8 7 6 6 6 6 7 6 8 9 7
11 14 14 14 12 10 11 14 15 14 7 8 7 6 6 8 10 6 6 11 9 6 2 2 1 11 17 18 17 16 13 12 14 13 12 13 12 11 11 11 11 11 13 13 13 14 14 15 16 14 14 14 14 15 15 15 15 15 15 14 15 14 14 14 13 12 12 12 9 8 5 8 6 6 7 8 8 7 6 6 7 7 8 9 8 9
11 11 15 12 10 10 9 14 15 13 6 7 8 8 7 8 9 8 13 12 13 5 7 7 2 12 12 12 15 12 13 9 12 12 10 10 11 10 11 10 12 12 13 14 14 15 15 14 14 15 15 15 15 15 15 16 16 14 13 14 15 14 14 13 14 14 15 14 15 11 8 6 6 5 5 6 6 8 9 10 9 8 7 8 10 10
8 10 12 11 10 10 10 11 13 10 7 4 10 8 7 10 8 4 9 12 11 8 3 13 12 10 9 10 9 9 7 11 10 10 10 9 8 8 8 10 12 13 13 14 15 15 15 16 15 15 15 15 15 15 16 15 15 13 15 15 14 13 13 13 15 17 16 15 15 13 11 6 7 5 5 5 6 6 7 9 9 10 9 9 7 8
8 10 9 10 9 10 9 9 13 9 7 7 6 9 7 10 12 6 8 11 4 2 7 4 2 4 2 7 7 5 7 9 7 10 12 9 10 9 10 11 11 10 11 12 14 15 14 15 15 15 15 16 15 16 15 14 14 15 15 14 15 13 12 13 15 16 14 14 12 13 12 11 7 8 7 8 9 8 7 8 8 9 10 11 11 10
5 9 9 12 10 9 9 6 9 8 6 6 7 9 9 9 11 7 8 7 5 4 7 5 3 1 1 5 3 2 6 7 6 9 8 9 9 10 9 10 11 12 12 11 12 14 15 16 16 17 17 16 16 15 14 14 15 16 15 14 15 13 12 11 14 15 13 14 13 14 12 11 12 11 7 7 8 9 9 8 9 9 9 10 12 12
4 8 9 8 10 8 8 10 11 11 7 4 7 11 12 9 7 5 5 6 3 2 4 5 5 1 1 2 2 4 5 6 7 7 8 9 9 9 9 10 10 11 11 11 12 13 14 15 15 16 16 15 16 15 14 15 15 17 16 16 16 13 13 13 13 14 13 13 13 14 14 12 12 13 13 11 8 8 8 9 9 8 9 11 11 12
6 5 7 9 8 8 8 9 12 8 5 5 11 13 13 9 5 4 4 5 4 3 4 7 9 2 1 0 1 2 3 6 7 8 9 8 8 8 9 10 10 10 10 11 12 12 14 14 14 14 14 15 15 15 15 14 15 14 15 16 16 16 14 14 16 15 14 13 13 12 11 13 12 12 13 13 11 9 8 8 8 8 8 9 11 12
2 3 3 4 6 8 9 11 10 7 7 6 15 14 10 8 4 3 3 5 2 3 4 7 7 2 1 1 2 2 2 4 6 6 6 7 7 9 8 8 9 9 9 9 10 10 11 12 13 12 12 13 13 13 13 13 13 14 14 17 19 18 15 15 16 15 15 14 13 13 14 15 14 13 13 12 13 12 9 10 10 9 9 7 7 10
2 1 4 3 5 5 8 11 5 9 5 14 12 7 8 5 3 3 3 3 2 0 2 6 6 3 2 1 2 2 2 2 3 3 4 5 5 6 6 7 9 9 9 9 8 8 8 8 10 11 12 12 12 12 13 14 14 14 14 16 17 17 16 17 16 16 16 14 13 12 14 15 15 16 14 14 14 13 13 11 10 9 9 9 10 8
3 3 2 1 5 6 5 8 7 8 5 12 7 9 6 2 2 1 3 2 1 1 3 8 7 5 1 0 4 1 2 3 3 5 5 6 7 7 6 7 7 7 7 8 8 8 9 8 10 11 12 13 14 14 15 15 15 15 15 16 17 17 18 17 17 17 17 15 14 13 15 16 15 15 13 14 15 14 15 15 12 10 9 9 9 9
4 3 1 3 4 12 7 7 5 6 6 10 8 9 7 2 3 2 1 4 1 1 2 8 7 5 2 1 4 3 3 1 2 5 5 5 6 5 5 7 6 5 6 6 7 8 9 9 11 11 12 12 13 14 15 15 15 15 15 17 18 18 18 17 16 17 17 17 16 15 15 15 14 14 15 15 14 13 13 13 14 13 10 10 10 9
0 1 10 2 2 7 7 8 9 6 10 10 8 6 4 3 4 3 3 1 2 3 5 11 5 2 1 2 4 5 3 2 3 4 3 4 5 5 5 5 6 6 6 5 5 6 7 9 10 9 11 10 11 13 14 14 14 14 14 16 17 17 16 17 17 16 17 17 16 16 15 15 14 15 14 13 13 14 12 12 13 14 13 11 11 11
5 2 4 6 3 5 5 4 3 5 7 7 4 7 3 3 1 1 2 2 4 6 10 12 2 1 3 3 8 6 5 3 2 4 3 4 4 4 5 5 5 6 7 7 5 5 7 9 9 9 10 10 10 11 12 11 12 12 14 14 17 18 18 17 17 16 17 16 16 16 16 15 14 13 13 13 12 13 14 12 14 14 13 13 12 11
1 5 1 5 1 2 6 4 4 4 4 2 3 2 3 2 1 2 2 3 3 6 6 3 1 2 1 2 6 3 4 2 0 4 5 4 4 4 4 5 5 7 7 7 7 5 5 5 6 8 9 10 9 11 10 12 11 12 13 14 15 15 16 17 18 17 16 15 14 16 17 18 17 15 13 12 12 13 14 14 13 13 14 14 14 13
2 2 3 10 2 3 4 3 3 3 2 5 4 2 2 3 3 2 4 4 4 3 6 2 4 2 3 0 3 5 5 2 1 4 6 8 7 4 4 4 5 6 7 8 9 7 6 6 6 5 7 8 9 10 11 11 11 12 13 14 16 16 14 15 15 16 16 15 15 15 15 17 18 18 17 15 16 16 14 14 13 12 13 14 14 13
1 9 10 2 4 1 5 1 3 3 1 2 2 4 2 4 4 1 2 3 2 1 4 3 4 4 4 4 4 5 3 3 2 4 6 5 5 5 4 4 6 6 7 7 8 7 6 6 6 6 5 7 9 9 11 11 11 10 11 12 15 15 17 15 15 16 15 16 16 15 16 16 16 15 16 16 16 15 15 14 13 14 13 12 13 13
1 5 1 1 4 7 8 1 3 4 3 3 1 3 3 2 1 3 1 2 3 3 3 4 3 4 5 4 1 2 4 3 5 8 7 7 5 5 6 5 5 6 6 7 7 9 8 6 6 6 5 7 6 8 9 10 10 11 11 11 12 14 14 14 13 14 14 14 12 13 16 17 16 14 14 15 16 15 15 16 15 15 15 14 12 12
3 1 4 2 6 8 6 1 1 3 0 1 3 3 3 0 0 2 0 1 1 5 3 4 3 5 2 2 3 5 4 6 7 8 8 8 7 5 6 5 5 6 6 7 7 8 9 7 6 5 6 6 8 8 9 10 10 12 12 12 12 13 13 14 16 15 15 15 13 15 16 17 16 14 14 14 15 15 15 15 16 17 16 16 15 13
2 1 3 3 12 7 2 2 2 2 3 4 3 2 2 0 2 5 1 2 2 1 2 3 7 2 2 3 8 6 5 7 7 9 9 8 6 6 4 4 4 6 7 7 7 8 10 9 7 6 5 5 5 7 9 11 12 12 12 12 13 14 14 14 15 15 14 14 14 16 17 18 17 18 15 16 15 14 14 14 15 15 15 14 14 15
0 0 4 8 8 3 3 2 0 0 2 1 2 1 1 3 4 4 6 1 2 0 2 2 11 9 5 7 8 2 4 5 9 9 10 9 10 8 6 4 4 4 6 7 8 9 9 8 8 6 5 4 4 7 10 10 11 13 13 13 13 12 12 13 14 14 15 14 14 15 16 17 16 15 15 17 16 15 14 14 14 15 15 14 13 13
1 1 2 7 4 8 11 3 3 2 5 0 1 1 2 1 2 2 2 3 4 3 3 5 7 9 2 3 1 2 5 9 10 10 11 11 11 11 7 5 4 5 7 8 9 10 10 9 10 9 7 5 5 6 6 7 9 11 12 13 12 13 13 12 13 13 12 14 15 17 15 15 15 16 16 17 16 16 16 15 15 14 14 15 14 12
1 0 2 7 7 10 1 3 2 4 2 2 0 0 2 1 1 3 3 0 1 4 5 4 7 6 4 6 3 5 12 12 10 10 13 12 11 9 8 6 7 8 8 6 7 8 8 9 9 11 10 7 6 5 6 7 8 10 10 12 12 14 14 14 13 13 13 13 15 17 17 16 15 16 16 17 15 17 17 16 15 14 14 14 14 14
1 1 1 5 3 0 1 2 1 1 1 1 2 4 3 2 3 1 2 1 2 6 9 3 13 3 2 8 10 15 15 13 14 13 12 14 11 8 8 8 8 7 8 7 7 8 10 10 11 10 11 12 8 5 5 8 8 10 11 11 12 12 13 13 13 13 13 13 15 15 15 17 16 15 16 17 15 17 16 16 15 14 15 14 15 15
1 3 2 1 3 5 4 3 3 2 4 4 3 3 4 5 6 3 3 1 5 3 8 5 11 9 7 9 14 14 13 15 14 14 14 11 9 10 10 10 10 10 8 8 8 8 10 11 11 11 12 11 10 6 7 9 10 11 12 13 11 12 12 13 13 13 13 13 14 14 14 15 16 17 17 16 15 16 16 15 15 15 15 14 16 16
1 1 2 3 3 6 5 3 3 7 7 4 5 7 9 6 6 4 3 6 11 8 9 11 14 19 17 13 10 13 15 16 18 16 14 11 10 11 11 11 9 9 10 10 10 11 12 13 14 13 12 11 10 10 11 12 13 12 12 13 13 12 12 12 13 13 13 14 14 14 13 13 14 15 16 15 14 14 14 15 15 15 15 15 15 15
2 3 4 6 10 10 8 10 11 9 12 12 11 11 8 10 8 8 6 10 6 9 16 8 12 13 14 13 13 15 16 17 16 13 11 12 13 14 13 12 12 11 12 12 13 14 15 14 15 15 13 11 11 14 14 14 13 13 13 14 14 14 13 12 13 13 13 14 14 13 14 13 13 14 14 14 14 14 14 14 15 14 14 13 15 14
0 3 4 4 8 10 9 11 11 9 10 11 11 11 12 11 10 9 10 13 11 10 16 16 14 17 17 15 14 16 17 15 12 14 15 15 15 15 14 13 13 13 14 15 16 17 18 17 15 14 13 15 16 16 16 14 14 12 12 13 14 14 15 14 13 12 13 14 14 14 13 13 12 12 13 13 14 14 14 14 14 14 14 13 13 12
0 5 4 3 6 8 8 11 12 12 12 14 15 14 13 11 12 11 12 12 13 14 16 17 18 21 17 16 16 15 9 11 14 14 15 15 16 16 15 15 16 17 17 17 18 19 17 13 12 15 17 18 17 17 16 15 15 15 15 15 15 15 15 14 12 12 13 14 14 14 14 14 13 14 13 13 14 14 14 13 14 14 14 14 13 13
4 4 7 4 5 8 8 8 10 12 10 15 17 14 14 13 12 13 13 15 15 15 15 17 18 17 10 10 9 9 13 14 14 13 13 13 14 16 16 17 17 17 19 20 21 17 12 12 15 17 17 17 17 17 17 16 16 16 16 15 15 16 15 13 13 13 13 14 13 14 14 14 14 13 14 13 13 14 14 14 13 14 14 14 14 13
4 3 2 4 6 6 2 4 5 5 7 13 17 19 17 10 8 7 6 8 7 12 13 12 12 10 7 7 12 13 12 12 12 11 12 13 15 17 19 20 20 21 22 21 15 12 14 16 18 17 17 17 17 17 16 17 17 16 16 16 15 15 14 14 14 14 14 13 13 14 15 14 14 14 13 13 14 14 14 13 13 14 14 14 15 14
3 2 2 3 6 8 3 2 3 3 7 12 13 12 11 7 6 6 6 7 8 6 8 8 10 9 11 11 12 12 12 12 13 11 12 14 16 19 20 22 21 22 19 10 13 16 17 19 20 17 16 16 16 17 18 18 17 17 17 16 15 15 16 16 15 14 14 13 13 14 14 14 15 14 13 12 13 14 14 14 14 14 13 15 15 14
3 4 4 2 4 1 1 4 2 1 4 8 1 2 1 4 6 8 7 7 8 5 9 9 10 10 9 9 10 11 12 12 13 13 13 16 17 19 20 20 20 15 11 14 16 19 19 15 15 15 16 17 18 18 17 16 16 16 15 15 16 17 16 16 15 14 14 14 13 13 13 14 14 14 13 11 13 14 14 13 13 13 12 12 14 14
4 4 4 2 3 4 2 6 7 7 10 5 4 5 7 10 12 14 9 6 8 7 8 10 10 8 5 7 9 11 13 15 15 15 16 17 17 17 19 19 13 12 16 17 18 18 18 18 17 17 17 17 17 16 15 15 15 16 17 17 17 16 16 15 15 14 14 14 13 12 13 13 14 14 13 12 12 14 14 13 13 13 12 12 13 14
6 6 3 4 3 5 3 3 4 3 1 6 11 11 11 8 6 6 10 4 7 7 8 12 5 4 7 9 11 12 14 16 14 12 15 16 15 16 16 13 14 16 18 17 20 20 18 17 17 17 17 15 14 14 15 16 15 16 17 17 17 16 15 15 15 15 14 14 13 13 12 13 14 13 13 13 13 13 14 13 12 13 13 12 12 12
6 4 5 5 4 4 3 6 11 9 12 10 8 5 1 2 2 4 11 8 4 7 5 3 6 9 10 12 11 12 14 14 13 12 11 14 14 11 11 14 15 17 19 21 19 19 17 16 16 17 15 14 14 16 15 15 14 15 17 17 16 16 15 14 15 15 15 14 14 12 12 12 13 14 14 13 13 14 13 12 14 13 10 12 13 13
7 8 4 4 4 7 5 9 7 7 8 3 1 4 4 5 8 7 7 14 2 2 3 4 8 10 12 12 13 14 13 14 14 12 10 11 10 12 13 14 16 18 19 17 18 19 17 16 16 14 13 14 15 16 15 14 15 15 16 16 16 16 15 15 15 15 14 15 14 12 11 12 13 14 14 13 13 12 12 13 12 12 10 11 13 14
6 7 6 6 6 4 6 7 7 5 11 7 10 6 4 5 4 4 4 12 1 1 4 4 9 10 11 12 13 12 12 12 14 14 12 15 17 15 16 16 17 18 18 19 19 19 18 15 14 13 12 13 15 16 15 15 15 15 15 16 15 15 16 16 15 14 15 15 14 13 12 12 13 14 14 12 11 11 14 14 13 12 11 10 10 11
2 5 7 8 8 7 6 7 8 5 7 4 9 12 3 3 5 7 10 4 4 3 7 8 10 11 12 12 11 11 11 14 16 15 17 19 18 16 16 19 20 19 19 22 17 16 16 14 13 12 14 15 16 15 15 14 14 15 16 16 15 16 17 16 14 15 15 14 14 13 13 12 13 13 11 11 13 13 13 12 12 12 12 12 10 11
3 4 7 12 10 13 15 12 8 8 5 5 7 6 1 1 1 5 11 9 2 5 6 7 9 10 10 12 9 11 10 12 16 19 20 20 19 17 15 17 19 20 24 20 16 18 15 11 10 12 14 14 14 13 12 13 14 16 16 16 15 16 16 15 15 15 15 15 15 15 14 12 9 10 12 13 13 13 13 11 11 12 12 13 11 10
2 2 5 7 10 8 9 12 11 11 11 14 14 7 1 2 3 11 8 4 9 9 5 6 9 10 9 10 11 11 14 16 19 19 20 19 17 18 19 20 21 21 20 17 16 15 12 9 10 13 14 13 14 13 12 13 15 15 15 15 17 17 15 15 15 15 15 17 16 14 12 11 12 12 13 13 12 12 13 12 11 11 12 11 11 13
4 2 5 6 3 5 4 7 6 8 1 7 3 0 4 4 6 6 9 8 4 9 8 8 8 9 8 11 11 14 17 18 19 20 18 17 18 19 21 23 22 19 20 20 18 14 12 11 12 12 13 13 13 12 12 13 15 16 15 16 16 14 13 14 15 16 15 16 17 16 15 15 15 15 12 12 12 13 14 13 12 12 11 12 12 12
5 8 7 6 7 5 6 6 7 2 4 4 1 6 4 8 10 8 5 9 6 6 7 6 5 6 9 12 15 16 17 19 19 17 17 17 17 19 20 20 18 18 20 18 17 15 11 11 11 12 13 14 13 12 12 12 14 14 15 17 14 13 14 15 16 16 16 14 16 16 16 15 15 14 13 13 12 12 13 13 12 12 11 11 11 10
10 11 6 7 4 6 7 8 10 8 9 9 9 11 12 9 8 9 8 9 10 6 3 5 7 9 11 14 15 16 17 16 17 17 18 19 19 19 20 20 19 18 17 16 14 15 13 13 13 13 14 15 15 13 13 12 12 13 16 16 14 14 14 15 16 15 15 16 16 17 16 15 14 14 13 12 10 11 12 13 12 13 11 10 10 9
6 10 5 8 10 10 14 12 14 15 15 14 11 10 11 11 10 9 9 9 5 5 3 6 8 10 13 13 15 15 15 16 18 18 19 19 18 18 18 18 18 16 13 13 14 16 15 14 13 13 14 16 16 14 13 12 11 13 15 14 12 12 13 15 16 17 17 16 14 15 17 18 18 16 13 11 10 11 11 12 12 11 11 10 10 9
8 8 10 10 10 10 11 4 13 14 9 8 11 12 11 11 12 6 5 6 5 4 6 6 9 12 14 14 15 16 17 17 18 19 18 16 17 19 20 19 16 12 13 15 16 16 15 13 14 14 16 18 17 14 13 13 12 11 11 11 11 11 13 14 15 15 15 13 15 18 16 16 15 15 15 14 12 11 9 8 10 12 12 11 10 9
5 2 2 9 11 11 14 14 17 15 13 13 13 12 13 11 8 5 7 5 4 4 5 8 9 12 12 13 14 16 17 18 19 19 17 16 17 18 18 17 15 13 14 15 16 15 14 14 14 15 15 16 15 14 14 13 13 11 9 9 10 12 14 15 13 13 13 16 16 15 14 14 19 18 12 12 9 9 9 9 8 10 10 11 11 11
6 1 11 9 9 10 12 18 18 15 15 13 11 8 6 5 6 8 7 5 5 6 7 8 8 12 13 15 15 15 17 18 17 16 17 17 18 17 17 15 12 13 15 17 16 14 14 14 15 15 14 15 14 13 13 14 12 10 10 10 11 12 14 14 16 15 15 14 13 14 15 14 13 12 10 9 10 10 9 9 10 11 11 12 11 11
6 13 16 10 12 13 12 14 6 9 10 8 9 10 9 7 7 9 6 6 6 8 8 9 12 12 13 14 15 15 17 17 16 16 17 16 17 17 16 14 12 14 16 15 14 14 15 14 13 13 14 15 14 13 13 14 13 11 10 10 11 11 13 14 14 14 14 11 11 11 12 13 13 12 11 10 10 11 13 14 17 16 14 15 18 20
9 18 8 9 12 14 13 12 9 11 13 14 14 10 7 6 6 8 8 7 8 7 7 10 13 14 14 14 13 14 15 15 17 17 16 15 16 15 15 15 14 13 14 16 16 16 16 15 14 14 15 14 11 13 14 15 14 12 12 11 11 12 13 11 12 15 15 14 10 13 14 13 12 10 11 11 10 9 12 14 17 16 20 21 21 21
Wind_Direction
348 34 24 18 7 8 21 4 350 346 34 19 1 8 357 3 357 346 320 15 10 343 331 325 349 323 296 16 53 52 49 44 43 40 38 35 33 29 24 22 19 19 13 359 7 10 10 9 9 10 8 7 8 12 7 3 1 2 0 354 353 346 344 347 343 315 278 201 213 228 231 243 237 247 249 250 232 227 225 228 221 212 208 213 215 205
14 40 23 8 0 358 23 5 357 349 58 23 17 7 355 18 345 324 322 4 349 346 305 332 359 325 52 56 52 51 48 44 40 37 34 31 29 29 22 19 18 13 4 5 12 10 11 9 8 9 8 7 8 9 6 5 360 0 358 356 350 348 344 345 342 340 321 281 249 205 215 220 225 234 253 260 253 242 234 227 223 217 211 214 219 218
31 33 8 358 356 352 32 12 3 359 11 36 23 7 360 359 331 298 346 342 332 307 303 347 357 46 55 53 51 52 55 48 45 43 37 29 24 23 22 14 12 13 10 6 9 11 10 8 8 8 7 7 9 7 5 1 0 2 1 356 351 347 344 342 344 344 337 331 309 285 255 201 225 227 230 240 247 240 238 231 228 224 220 216 218 221
35 15 360 349 355 2 32 21 10 1 25 53 24 20 10 350 360 333 326 337 322 325 344 331 76 59 43 40 52 43 45 47 46 45 42 34 28 19 21 15 9 15 9 9 9 6 6 10 9 7 7 6 5 7 4 3 2 0 358 356 351 348 346 342 345 343 338 332 326 305 252 263 221 224 227 244 242 241 237 237 231 233 232 223 221 218
43 3 351 347 4 11 20 30 20 3 359 30 48 18 360 348 341 311 305 320 303 279 334 22 66 40 13 32 33 36 42 46 30 37 37 36 33 24 23 21 16 14 11 7 8 8 6 7 9 7 5 5 8 6 2 1 1 357 354 352 351 349 346 344 347 344 342 338 339 336 319 286 288 265 260 262 253 232 234 241 236 232 228 238 241 229
33 9 351 357 7 15 11 22 22 7 349 331 53 19 352 328 314 328 329 330 342 47 21 0 85 58 325 37 17 359 34 39 32 33 34 20 23 23 24 20 16 16 17 11 9 8 5 6 4 7 8 10 8 6 0 357 357 355 354 352 352 349 350 348 345 345 344 343 337 339 336 329 296 266 252 242 247 251 241 232 235 237 227 225 233 237
18 1 5 3 4 5 12 12 6 8 337 335 358 348 337 320 310 341 333 321 356 16 321 358 64 153 188 59 17 355 38 36 23 39 29 26 19 19 20 18 17 13 9 12 14 10 7 7 6 7 10 8 7 4 357 356 356 355 355 355 355 350 350 348 348 347 344 342 342 335 328 319 314 305 274 251 241 242 243 238 233 228 226 225 224 229
9 6 4 8 8 16 3 358 348 348 344 322 336 332 318 314 317 332 311 293 310 331 265 15 7 84 339 61 356 328 35 15 28 27 26 26 24 15 15 16 16 17 12 12 13 10 11 9 9 7 7 9 7 359 359 0 357 355 354 357 356 353 352 352 348 347 348 342 338 335 333 329 326 319 312 299 269 254 251 254 240 228 225 224 224 224
44 360 10 1 11 14 7 328 324 326 346 294 322 315 301 291 298 281 284 296 298 3 348 6 0 46 195 303 188 7 7 18 18 22 19 15 24 17 13 17 15 15 17 14 13 11 11 9 8 6 8 5 3 4 2 2 357 353 354 356 356 358 355 352 350 348 349 347 337 335 334 331 327 321 317 313 302 284 270 252 246 246 236 229 228 222
53 31 357 13 21 5 331 327 313 345 339 320 313 298 276 261 246 279 266 280 331 37 350 7 355 8 268 292 352 3 71 10 8 14 11 13 16 18 12 15 16 13 15 16 15 12 11 10 7 4 3 5 6 0 358 360 359 358 359 359 358 358 357 354 353 350 347 346 343 340 339 335 329 327 321 318 311 300 285 276 264 249 247 240 228 227
96 123 174 56 21 353 331 318 340 349 351 316 304 294 285 214 203 206 236 247 303 80 14 4 348 25 298 107 314 38 5 289 335 355 16 10 19 23 19 15 16 12 12 10 7 9 13 9 7 4 4 2 3 1 360 359 360 358 359 358 359 356 355 354 353 352 347 345 347 342 339 334 329 327 325 321 317 314 305 287 274 263 255 247 248 230
108 22 49 55 17 350 354 331 8 336 5 334 342 344 339 83 285 294 309 315 64 286 28 2 340 322 241 310 260 211 191 251 343 15 8 5 17 14 11 18 13 12 11 6 2 359 5 7 11 6 2 2 0 1 0 359 358 356 357 356 356 356 357 353 351 351 353 349 345 343 340 336 332 327 323 321 316 314 310 305 292 277 266 257 250 246
80 58 87 108 315 14 353 344 356 323 353 351 347 0 34 337 16 342 7 6 22 270 316 351 359 353 240 349 145 176 259 289 28 40 15 5 14 11 4 16 8 2 12 4 2 360 1 9 5 4 2 358 1 1 356 357 355 353 352 353 353 353 354 353 350 350 348 349 348 345 341 339 334 329 326 322 317 314 311 310 307 300 280 267 257 246
345 107 30 7 175 14 16 17 345 356 344 345 5 4 23 13 33 357 307 253 291 297 354 318 360 267 226 283 161 175 207 216 55 52 39 22 20 13 357 10 8 359 4 0 358 2 3 3 3 3 1 358 358 357 355 354 353 351 350 349 349 346 349 350 349 348 348 347 345 344 342 339 335 331 325 320 317 313 308 306 304 303 300 288 271 262
3 343 19 18 350 349 21 26 317 271 311 304 329 28 42 68 57 325 350 337 276 280 310 300 10 245 332 257 166 183 171 222 65 69 41 31 43 21 354 8 6 1 358 351 351 5 9 359 358 360 356 356 355 353 351 353 350 349 347 347 346 343 344 347 348 346 347 345 344 342 341 339 337 330 324 321 317 314 311 307 306 304 302 297 293 280
323 241 272 26 294 1 6 343 304 317 292 247 326 54 45 35 9 208 269 310 307 318 327 304 178 345 327 146 159 162 186 154 52 55 26 19 27 33 9 7 4 358 356 348 342 357 4 360 354 355 354 353 353 351 349 348 349 348 345 344 343 341 340 341 344 345 342 341 341 339 340 339 337 333 328 322 321 318 314 308 302 300 300 299 296 290
327 247 47 333 20 55 6 348 323 339 40 304 8 43 264 171 143 287 294 234 254 308 252 218 347 360 134 130 184 162 190 162 81 36 28 10 351 23 24 8 5 354 352 348 340 349 351 350 351 353 355 348 350 349 348 347 346 345 341 341 340 339 339 340 340 339 338 337 338 338 338 338 337 337 334 328 323 320 315 312 308 301 299 298 297 293
73 278 299 308 332 29 13 293 259 323 266 302 47 310 294 82 113 118 286 295 277 287 275 23 304 309 351 309 171 189 215 96 22 20 22 11 337 3 358 12 7 355 346 345 338 338 340 341 343 350 349 349 346 344 342 343 342 341 340 338 339 338 338 338 338 338 337 335 335 334 336 336 336 332 331 329 325 323 321 317 313 310 304 301 301 300
24 316 345 110 343 316 344 47 308 282 300 97 172 28 40 332 1 301 274 341 350 292 283 278 341 311 276 281 75 269 359 6 9 13 359 351 352 359 359 4 2 352 340 342 339 335 334 334 339 341 343 340 341 340 339 336 339 338 338 338 337 334 332 333 334 334 333 335 333 332 331 331 332 331 330 330 328 325 324 324 319 314 311 303 297 297
324 231 301 158 37 319 313 24 14 321 302 315 341 36 333 150 252 353 337 209 166 266 3 286 20 291 270 77 325 331 356 23 6 358 346 341 353 359 353 353 348 346 336 332 335 332 328 325 327 331 337 340 341 343 339 338 338 337 335 336 334 332 333 334 336 335 333 332 331 330 329 328 328 328 329 329 329 327 324 323 324 320 315 315 314 305
282 81 268 306 350 332 3 18 22 21 342 340 16 50 7 9 229 188 265 161 216 236 250 294 304 221 167 15 347 326 15 10 360 342 340 339 344 352 348 347 343 336 333 328 330 330 325 323 322 324 336 336 340 347 344 342 339 334 333 333 335 334 334 335 334 333 330 328 329 329 330 328 326 325 327 329 328 324 323 321 321 320 315 309 309 309
326 238 266 313 338 357 266 71 164 3 351 330 323 44 87 1 15 38 301 104 29 34 256 304 272 256 297 342 273 4 14 11 347 341 337 341 340 337 331 323 341 333 327 327 327 326 322 319 321 316 324 329 341 346 345 341 339 335 334 332 331 331 331 332 332 330 327 325 324 326 326 326 322 321 324 327 327 325 324 324 322 319 316 312 307 310
106 288 293 290 248 277 269 1 26 58 97 86 22 35 33 337 61 343 283 294 4 282 342 272 289 286 179 223 320 34 20 349 341 345 341 340 334 327 324 333 341 337 324 324 327 324 321 320 319 312 312 320 331 333 338 337 335 331 328 329 328 327 326 327 325 323 322 322 323 324 323 323 322 321 323 325 326 325 325 324 322 320 318 315 309 304
360 308 281 268 268 261 321 78 38 31 30 31 336 356 37 18 161 194 233 326 244 299 316 258 227 267 321 271 235 351 345 347 343 345 337 331 324 318 338 345 342 329 318 310 312 312 314 319 319 322 316 310 316 325 330 331 329 325 325 325 324 323 323 324 325 322 321 321 320 321 322 323 322 322 323 323 323 322 323 323 322 321 319 318 314 308
315 215 152 293 307 348 339 325 33 299 59 33 14 331 340 350 18 310 288 128 258 215 228 247 265 281 316 357 338 332 331 330 335 333 334 323 317 322 333 334 321 308 301 300 305 311 319 318 318 315 317 313 305 315 323 327 326 322 321 321 320 317 317 319 319 318 317 318 317 318 319 320 322 322 322 321 320 320 321 321 322 321 321 320 317 314
271 299 17 341 332 333 326 319 330 339 329 316 281 347 343 329 299 356 310 250 253 207 200 224 267 271 300 317 313 308 319 326 326 323 317 309 314 324 324 317 310 301 289 295 306 319 317 313 308 312 316 314 309 312 327 326 323 322 320 318 315 312 314 315 316 314 314 316 315 314 315 317 319 320 320 318 317 318 318 319 320 320 319 320 318 315
261 315 248 257 224 237 258 296 312 343 325 297 293 298 288 280 276 260 261 250 249 274 267 253 270 289 291 293 299 318 321 321 315 307 304 312 318 315 308 304 305 311 313 315 322 318 312 308 312 316 318 318 322 330 328 324 320 317 315 315 316 312 309 310 311 311 312 313 311 309 310 312 314 315 315 315 314 314 315 316 318 318 318 318 316 313
234 247 228 229 246 254 279 285 295 311 289 284 291 285 279 274 264 251 219 243 273 315 279 260 269 282 289 301 306 310 310 302 297 305 318 323 323 321 317 316 324 328 328 328 323 320 317 317 320 320 318 319 320 322 322 321 317 314 314 315 316 315 311 308 306 307 308 309 308 306 307 307 309 310 310 311 311 311 310 312 315 316 315 315 315 313
32 260 246 245 266 270 272 276 281 285 271 278 281 279 276 268 262 252 248 254 262 251 263 281 283 283 287 293 300 294 289 291 309 328 328 326 322 322 327 332 331 328 325 321 317 316 314 313 318 323 327 323 321 320 321 319 315 311 309 309 310 310 308 305 300 301 304 305 303 303 304 306 307 306 306 309 311 311 311 311 313 313 314 313 311 309
330 239 241 290 292 283 282 280 281 278 282 280 271 270 264 266 265 260 264 258 252 254 261 273 279 276 283 288 284 284 298 325 328 326 329 338 345 339 337 329 324 319 318 314 310 306 306 316 329 330 326 322 319 321 319 316 313 310 308 307 307 306 304 302 298 299 302 300 299 301 303 304 303 303 304 308 311 311 310 311 312 313 314 314 312 310
124 278 358 338 277 268 259 256 261 265 276 281 278 272 271 269 270 267 267 270 270 268 263 266 270 275 275 275 293 324 327 323 322 336 353 345 334 331 326 320 313 310 307 306 302 306 319 329 328 324 320 317 317 315 315 310 307 305 303 302 303 303 302 300 299 299 298 296 297 300 302 302 301 301 303 306 308 310 310 311 313 313 313 314 315 314
179 275 328 282 290 272 253 275 271 272 290 283 287 285 277 262 255 250 238 235 237 260 268 271 274 284 302 314 315 314 326 342 347 345 341 335 327 320 312 306 303 303 304 302 311 330 329 328 322 316 314 314 312 311 308 306 304 303 302 302 301 300 302 301 298 297 296 293 297 298 300 299 299 299 300 305 309 309 310 309 311 312 313 316 317 318
187 225 261 304 283 261 250 254 284 359 310 285 264 249 242 230 198 223 236 245 244 266 291 293 283 299 309 320 332 350 356 341 335 333 327 315 310 305 302 300 301 301 300 327 331 326 325 321 310 308 309 309 308 306 304 303 302 300 300 299 299 301 301 298 296 295 295 295 295 296 295 297 297 297 299 304 307 308 308 310 310 312 315 317 317 315
200 241 262 273 260 308 293 280 285 306 273 257 212 165 188 282 291 285 268 260 266 263 265 270 287 306 332 0 355 331 328 317 309 308 310 307 304 301 297 297 297 303 323 321 321 317 310 299 300 308 307 306 304 302 302 302 300 299 300 301 301 298 296 295 294 294 295 296 295 294 294 295 296 297 299 302 306 307 306 307 308 309 310 311 314 314
231 231 254 208 259 286 332 302 265 210 239 248 288 297 305 311 300 281 268 266 286 287 290 299 306 325 359 335 324 311 307 307 308 307 301 295 294 295 298 299 305 317 315 315 312 310 305 303 306 307 306 306 305 306 306 306 305 307 305 303 300 297 295 294 294 296 296 296 295 294 295 295 296 299 301 305 306 305 303 304 307 311 314 313 311 311
235 234 246 245 255 271 216 208 270 211 210 298 295 287 284 279 270 330 306 280 273 290 301 296 335 336 319 314 309 310 304 298 294 288 287 288 292 299 300 305 312 313 310 308 306 302 299 301 302 304 305 306 308 311 311 308 309 308 305 303 299 297 295 295 296 296 296 296 295 294 294 296 297 297 301 305 304 301 301 303 307 312 314 311 308 305
216 225 220 277 187 241 204 212 238 287 294 277 282 297 271 286 355 319 301 291 261 270 277 329 321 318 318 310 305 298 295 294 292 288 281 288 295 294 299 303 304 303 300 300 301 295 295 298 302 304 305 310 313 311 307 308 309 309 308 305 302 300 298 298 296 296 297 297 295 293 295 297 298 298 300 302 300 299 300 306 311 310 311 306 305 305
195 200 228 229 244 191 252 286 295 303 285 252 151 271 9 350 332 313 295 289 301 4 31 345 314 309 302 299 296 294 296 299 296 297 302 302 300 301 298 298 301 300 299 305 300 297 299 301 303 304 306 309 309 306 305 308 309 309 308 305 304 303 300 298 295 297 298 296 295 295 299 299 298 297 296 298 295 297 302 305 303 299 304 302 304 304
200 210 224 216 261 306 293 280 267 263 262 247 241 247 312 338 351 0 327 282 116 272 298 315 301 297 294 295 296 307 309 298 295 299 312 313 311 310 308 307 306 305 313 304 293 295 298 299 303 305 306 307 305 305 307 308 310 310 307 305 304 302 298 296 298 300 298 297 298 299 298 297 296 294 292 292 297 303 304 302 299 298 299 295 293 290
232 223 219 235 234 228 251 252 262 235 274 268 282 282 283 105 43 14 292 275 133 273 313 308 295 293 295 296 300 300 301 301 305 306 312 311 311 313 315 317 315 314 305 292 296 301 297 303 305 308 310 307 304 306 309 314 314 310 307 305 304 301 299 301 303 301 300 300 299 298 297 295 290 287 290 299 303 302 295 293 295 295 296 295 293 293
198 242 219 237 237 245 250 263 265 266 246 259 243 267 178 124 244 233 246 264 257 296 288 282 284 288 292 294 297 296 293 294 299 304 308 310 313 316 318 313 309 306 301 299 307 300 295 299 302 304 304 302 303 308 314 317 315 310 308 305 304 302 305 308 308 306 305 302 298 295 293 291 286 293 299 300 298 295 291 290 289 291 294 294 294 292
224 204 250 219 238 227 231 250 248 258 246 236 265 261 199 36 252 250 259 303 303 293 273 274 291 291 289 290 298 296 301 303 302 303 305 309 316 317 315 311 306 303 299 295 287 286 294 303 305 304 302 304 309 314 317 319 313 309 309 308 305 307 310 309 308 308 304 300 296 296 297 298 299 298 296 295 295 292 290 288 287 286 288 290 291 291
204 215 238 223 249 250 185 242 260 264 302 160 213 10 125 159 255 279 292 283 273 285 293 291 284 289 298 301 301 301 302 302 303 304 307 313 316 317 317 315 311 314 315 311 306 301 305 310 307 303 303 306 310 315 317 318 314 310 308 302 302 309 311 314 314 312 310 307 305 304 301 299 296 293 292 292 291 290 290 292 291 287 287 288 287 283
205 257 257 244 150 226 231 229 235 220 176 187 354 272 228 247 281 277 280 294 284 284 289 286 284 295 309 305 304 302 301 303 302 306 310 312 313 313 314 313 315 314 306 304 303 304 312 307 304 304 304 304 307 314 316 317 311 305 303 301 309 317 318 317 316 311 304 300 299 296 292 289 286 283 284 285 287 289 291 292 291 290 289 286 282 282
170 219 202 237 212 236 253 256 271 282 283 281 279 266 267 271 280 289 288 286 293 281 270 296 304 309 303 301 300 302 303 302 303 310 313 315 315 315 317 317 313 309 311 312 307 312 313 310 307 306 306 305 307 313 313 311 306 305 304 305 315 315 319 320 319 318 318 316 314 310 308 304 295 288 283 282 287 295 298 295 295 292 288 286 282 277
233 242 252 271 259 263 262 259 271 270 271 277 272 275 282 285 282 283 281 282 261 270 288 296 302 301 301 303 302 300 299 304 309 313 313 312 312 312 314 312 308 309 310 308 310 312 311 309 308 308 306 305 306 310 308 306 306 304 302 305 310 317 320 318 317 315 312 312 315 316 315 310 305 301 296 297 301 296 291 291 292 291 295 292 285 279
245 237 251 252 266 272 267 224 250 260 270 275 278 277 275 274 276 266 261 262 268 285 299 302 302 302 299 300 299 301 305 310 310 309 309 309 311 312 312 310 305 309 316 317 313 312 312 316 315 312 311 307 307 309 307 306 303 297 299 304 313 316 313 309 305 301 302 306 312 310 309 306 303 300 297 295 293 287 283 292 303 300 294 289 288 285
276 78 323 254 256 241 266 272 271 273 271 271 274 278 276 276 280 286 271 255 259 278 290 297 300 295 299 302 306 308 308 310 310 310 310 311 312 312 311 308 312 318 317 310 307 308 309 309 307 304 303 302 303 307 305 303 302 303 308 311 314 314 310 305 301 302 303 303 303 303 301 297 296 294 286 287 292 307 313 305 287 288 291 297 296 293
253 275 260 242 260 261 267 267 267 272 266 258 253 244 251 264 277 278 272 276 280 287 292 292 292 299 306 306 308 308 306 306 306 309 311 312 312 311 310 312 318 317 308 303 303 303 302 303 302 301 301 301 302 303 301 300 302 309 314 314 313 311 307 304 303 300 296 297 296 295 301 297 290 289 298 309 309 301 289 293 305 297 288 276 275 275
260 255 258 280 276 270 263 267 277 287 282 275 269 271 268 263 269 276 277 283 293 297 297 300 302 301 301 302 305 306 303 305 307 310 309 311 310 308 309 309 307 300 297 297 296 296 296 295 294 298 300 299 301 300 300 301 304 307 310 309 309 306 301 302 301 299 298 294 291 290 296 301 300 302 302 301 301 303 299 289 283 283 285 288 283 272
223 247 246 246 249 261 262 270 269 264 275 275 280 279 274 273 271 277 274 274 279 279 291 299 300 300 300 300 301 300 300 303 306 309 307 308 304 301 301 300 299 297 296 297 298 297 297 299 301 302 299 296 298 300 300 299 299 304 306 306 301 301 299 305 310 306 301 298 296 304 304 299 296 296 297 294 297 301 301 303 301 286 279 277 274 275